EZY464 EGJJ-EGKK

Flight info

Callsign EZY464
Flight time N/A
Altitude 21000
Route ORIST L982 VASUX
Aircraft A320/M-SDE3FGHIRWY/LB1

Departure

Time 2026-01-20 16:09
Airport Jersey Airport (EGJJ)

Arrival

Time N/A
Airport London Gatwick Airport (EGKK)
Time Latitude Longitude Altitude Speed Heading
2026-01-20 15:46 49.20492 -2.19674 309 ft 0 kts 358°
2026-01-20 15:59 49.20431 -2.19659 286 ft 1 kts 299°
2026-01-20 16:02 49.20442 -2.19702 281 ft 5 kts 284°
2026-01-20 16:03 49.20437 -2.19794 281 ft 3 kts 262°
2026-01-20 16:03 49.20490 -2.19930 280 ft 12 kts 329°
2026-01-20 16:04 49.20547 -2.20148 280 ft 10 kts 285°
2026-01-20 16:04 49.20600 -2.20413 280 ft 7 kts 287°
2026-01-20 16:05 49.20617 -2.20497 280 ft 0 kts 285°
2026-01-20 16:06 49.20621 -2.20525 283 ft 10 kts 282°
2026-01-20 16:07 49.20653 -2.20690 279 ft 10 kts 330°
2026-01-20 16:07 49.20710 -2.20613 278 ft 0 kts 80°
2026-01-20 16:08 49.20790 -2.19657 282 ft 115 kts 82°
2026-01-20 16:08 49.21163 -2.14936 1586 ft 157 kts 99°
2026-01-20 16:09 49.21297 -2.13155 1876 ft 180 kts 98°
2026-01-20 16:09 49.21620 -2.08902 2443 ft 219 kts 95°
2026-01-20 16:10 49.23083 -2.04699 2537 ft 259 kts 32°
2026-01-20 16:10 49.26738 -2.03786 3228 ft 272 kts 358°
2026-01-20 16:11 49.30819 -2.03908 3739 ft 310 kts 357°
2026-01-20 16:11 49.35213 -2.03922 4809 ft 320 kts 358°
2026-01-20 16:12 49.39691 -2.03739 5026 ft 321 kts 359°
2026-01-20 16:12 49.46405 -2.03361 6107 ft 325 kts 359°
2026-01-20 16:13 49.50967 -2.03119 7097 ft 331 kts 360°
2026-01-20 16:13 49.53281 -2.03004 7521 ft 336 kts 360°
2026-01-20 16:14 49.57964 -2.02756 7660 ft 336 kts
2026-01-20 16:14 49.62644 -2.02494 7484 ft 336 kts
2026-01-20 16:15 49.67285 -2.02241 6471 ft 330 kts 359°
2026-01-20 16:15 49.71794 -2.02010 5146 ft 320 kts 359°
2026-01-20 16:16 49.76264 -2.01782 4980 ft 322 kts
2026-01-20 16:16 49.82568 -1.98565 4995 ft 320 kts 31°
2026-01-20 16:17 49.86522 -1.95389 5001 ft 320 kts 31°
2026-01-20 16:17 49.88500 -1.93790 5005 ft 320 kts 31°
2026-01-20 16:18 49.92448 -1.90606 5023 ft 320 kts 31°
2026-01-20 16:18 49.96400 -1.87425 5031 ft 320 kts 31°
2026-01-20 16:19 50.00347 -1.84244 5028 ft 320 kts 31°
2026-01-20 16:19 50.04301 -1.81098 5021 ft 318 kts 30°
2026-01-20 16:20 50.08253 -1.77986 5448 ft 320 kts 30°
2026-01-20 16:20 50.13967 -1.72685 7058 ft 319 kts 45°
2026-01-20 16:21 50.17394 -1.68246 8106 ft 321 kts 45°
2026-01-20 16:21 50.19113 -1.66008 8624 ft 322 kts 46°
2026-01-20 16:22 50.24288 -1.59277 10069 ft 327 kts 46°
2026-01-20 16:22 50.26055 -1.56975 10284 ft 337 kts 46°
2026-01-20 16:23 50.29764 -1.52144 10650 ft 353 kts 45°
2026-01-20 16:23 50.33569 -1.47232 11285 ft 356 kts 45°
2026-01-20 16:24 50.37400 -1.42272 11886 ft 359 kts 45°
2026-01-20 16:24 50.43188 -1.34745 12770 ft 360 kts 44°
2026-01-20 16:25 50.47043 -1.29708 13062 ft 361 kts 45°
2026-01-20 16:25 50.48968 -1.27185 13076 ft 361 kts 45°
2026-01-20 16:26 50.52821 -1.22133 13075 ft 360 kts 45°
2026-01-20 16:26 50.56670 -1.17078 13075 ft 360 kts 45°
2026-01-20 16:27 50.60507 -1.12014 13075 ft 360 kts 45°
2026-01-20 16:27 50.64325 -1.06977 13088 ft 360 kts 45°
2026-01-20 16:28 50.67745 -1.01345 13084 ft 354 kts 57°
2026-01-20 16:28 50.72419 -0.92319 13062 ft 354 kts 56°
2026-01-20 16:29 50.75537 -0.86314 13098 ft 353 kts 56°
2026-01-20 16:29 50.78616 -0.80350 13095 ft 336 kts 56°
2026-01-20 16:30 50.80014 -0.77461 13105 ft 326 kts 64°
2026-01-20 16:30 50.81646 -0.71009 13073 ft 310 kts 86°
2026-01-20 16:30 50.82042 -0.67685 12454 ft 305 kts 87°
2026-01-20 16:31 50.83181 -0.57767 11749 ft 305 kts 87°
2026-01-20 16:32 50.83938 -0.51196 11253 ft 303 kts 87°
2026-01-20 16:32 50.85057 -0.41400 10506 ft 300 kts 87°
2026-01-20 16:33 50.85675 -0.36006 10096 ft 298 kts 88°
2026-01-20 16:33 50.86044 -0.32776 9849 ft 298 kts 88°
2026-01-20 16:33 50.86412 -0.29545 9598 ft 298 kts 88°
2026-01-20 16:34 50.87506 -0.19927 8853 ft 294 kts 88°
2026-01-20 16:35 50.88208 -0.13767 8455 ft 267 kts 89°
2026-01-20 16:35 50.88909 -0.08185 7945 ft 260 kts 77°
2026-01-20 16:36 50.91625 -0.04237 7689 ft 285 kts 15°
2026-01-20 16:36 50.96555 -0.07440 7313 ft 257 kts 289°
2026-01-20 16:37 50.97104 -0.10036 7190 ft 243 kts 268°
2026-01-20 16:37 50.96362 -0.14759 7121 ft 214 kts 224°
2026-01-20 16:38 50.93920 -0.16949 7112 ft 203 kts 186°
2026-01-20 16:38 50.91310 -0.15719 7116 ft 204 kts 141°
2026-01-20 16:39 50.90718 -0.11203 6882 ft 245 kts 73°
2026-01-20 16:39 50.92772 -0.06668 6663 ft 254 kts 59°
2026-01-20 16:40 50.94948 -0.02292 6080 ft 251 kts 59°
2026-01-20 16:40 50.98137 0.04217 5105 ft 248 kts 58°
2026-01-20 16:41 50.99188 0.06381 4776 ft 247 kts 59°
2026-01-20 16:41 51.01815 0.09793 3861 ft 254 kts 16°
2026-01-20 16:42 51.05188 0.08981 2924 ft 250 kts 331°
2026-01-20 16:42 51.08306 0.06586 2073 ft 250 kts 332°
2026-01-20 16:43 51.11303 0.04279 1977 ft 230 kts 332°
2026-01-20 16:43 51.14152 0.02082 1982 ft 227 kts 332°
2026-01-20 16:44 51.16441 -0.01079 1973 ft 215 kts 286°
2026-01-20 16:44 51.16804 -0.03294 1963 ft 201 kts 262°
2026-01-20 16:45 51.15267 -0.08425 2044 ft 162 kts 200°
2026-01-20 16:45 51.13191 -0.09287 2195 ft 153 kts 180°
2026-01-20 16:46 51.11077 -0.09784 2511 ft 154 kts 187°
2026-01-20 16:46 51.09028 -0.10827 2689 ft 158 kts 198°
2026-01-20 16:47 51.07790 -0.13899 2716 ft 191 kts 246°
2026-01-20 16:47 51.07300 -0.18040 2764 ft 190 kts 247°
2026-01-20 16:48 51.06807 -0.22175 2876 ft 191 kts 247°
2026-01-20 16:48 51.06046 -0.28378 2955 ft 190 kts 246°
2026-01-20 16:49 51.05789 -0.30444 2958 ft 191 kts 246°
2026-01-20 16:49 51.05276 -0.34581 2957 ft 190 kts 246°